{"data":{"norad_id":59766,"intl_designator":"2024-091P","name":"STARLINK-31739","alt_names":[],"object_type":"PAYLOAD","status":"ACTIVE","operator":null,"country":"US","launch_date":"2024-05-14","launch_site_code":"AFWTR","launch_vehicle":null,"mission":null,"orbit_class":"UNKNOWN","rcs_meters":null,"size_class":null,"mass_kg":null,"dimensions":null,"purposes":["comms"],"wikipedia_slug":null,"has_3d_model":false,"image_url":null,"decayed_at":null,"tle_current":{"epoch":"2026-05-25T02:15:26.911008Z","epoch_age_seconds":70929,"freshness":"FRESH","line1":"1 59766U 24091P   26145.09406147 -.00001258  00000+0 -30337-4 0  9995","line2":"2 59766  53.1613  29.0635 0001069  93.7034 266.4089 15.30205533114740","mean_motion":15.30205533,"eccentricity":0.0001069,"inclination_deg":53.1613,"raan_deg":29.0635,"arg_perigee_deg":93.7034,"mean_anomaly_deg":266.4089,"bstar":-3.0337e-5,"rev_number":11474,"period_min":94.10500543524,"perigee_km":474.46592735825,"apogee_km":475.93117049861,"semimajor_km":6853.3355489284,"source":"CELESTRAK","updated_at":"2026-05-25T13:38:19.058419Z"}}}